Location: Dob?e?
(49.9411°N, 15.1496°E)
Time: 04:33:34
(UTC+00:00)

SL-16 R/B - Pass Details

Date: 07 June 2020
Orbit: 986 x 1006 km, 99.5° (Epoch: 14 July)

Event Time Altitude Azimuth Distance (km) Brightness Sun altitude
Exits shadow 00:10:23 10° 152° (SSE) 2,728 4.4 -15.5°
Maximum altitude 00:16:28 72° 69° (ENE) 1,041 2.7 -15.2°
Drops below altitude 10° 00:22:39 10° 347° (NNW) 2,767 5.8 -14.9°
Sets 00:25:08 0° 346° (NNW) 3,723 6.5 -14.8°
